DW9682 Weather Reports


time (UTC)temp
C
wind
direction
speed
KPH
gust
KPH
rain 1hr
cm
rain 24hr
cm
rain mn
cm
humidity
%
barometer
mb
20260506192743 7 49 1.6 6.4 0.00 1.70 1.68 98 1005.3
20260506192640 7 327 1.6 6.4 0.00 1.70 1.68 98 1005.2
20260506192537 7 279 1.6 6.4 0.00 1.70 1.68 98 1005.1
20260506192435 7 296 1.6 6.4 0.00 1.70 1.68 98 1005.1
20260506192331 7 70 1.6 6.4 0.00 1.70 1.68 98 1005.1
20260506192228 7 119 1.6 6.4 0.00 1.70 1.68 98 1005.2
20260506192123 7 59 1.6 6.4 0.00 1.70 1.68 98 1005.3
20260506192016 7 33 0.0 6.4 0.00 1.70 1.68 98 1005.3
20260506191651 7 37 0.0 6.4 0.00 1.70 1.68 98 1005.1
20260506191544 7 30 0.0 6.4 0.00 1.70 1.68 98 1005.0
20260506191219 7 325 0.0 6.4 0.00 1.70 1.68 98 1005.0
20260506191115 7 57 0.0 6.4 0.00 1.70 1.68 98 1004.9
20260506191009 8 59 0.0 6.4 0.00 1.70 1.68 98 1004.9
20260506190904 8 52 0.0 6.4 0.00 1.70 1.68 98 1005.0
20260506190800 8 53 0.0 4.8 0.00 1.70 1.68 98 1005.0
20260506190656 8 46 0.0 4.8 0.00 1.70 1.68 98 1005.0
20260506190550 8 49 0.0 4.8 0.00 1.70 1.68 98 1004.9
20260506190446 8 313 0.0 4.8 0.00 1.70 1.68 98 1004.9
20260506190343 8 36 0.0 4.8 0.00 1.70 1.68 98 1004.9
20260506190240 8 65 0.0 4.8 0.00 1.70 1.68 98 1004.9
20260506190135 8 43 0.0 4.8 0.00 1.70 1.68 98 1004.9
20260506185811 8 23 0.0 4.8 0.00 1.70 1.68 98 1004.8
20260506185708 8 38 0.0 4.8 0.00 1.70 1.68 98 1004.8
20260506185601 8 63 0.0 4.8 0.00 1.70 1.68 98 1004.8
20260506185457 8 67 0.0 4.8 0.00 1.70 1.68 98 1004.8
20260506185349 8 217 0.0 4.8 0.00 1.70 1.68 98 1004.7
20260506185246 8 226 0.0 4.8 0.00 1.70 1.68 98 1004.8
20260506185140 8 146 0.0 4.8 0.00 1.70 1.68 99 1004.8
20260506184810 8 57 0.0 4.8 0.00 1.70 1.68 99 1005.0
20260506184706 8 59 0.0 4.8 0.00 1.70 1.68 99 1005.0
20260506184603 8 57 0.0 1.6 0.00 1.70 1.68 99 1005.0
20260506184458 8 304 0.0 1.6 0.00 1.70 1.68 99 1005.0
20260506184356 8 324 0.0 1.6 0.00 1.70 1.68 99 1005.0
20260506184253 8 348 0.0 1.6 0.00 1.70 1.68 99 1004.9
20260506184150 8 51 0.0 1.6 0.00 1.70 1.68 99 1004.9
20260506184044 8 23 0.0 0.0 0.00 1.70 1.68 98 1004.9
20260506183937 8 23 0.0 0.0 0.00 1.70 1.68 98 1004.9
20260506183832 8 24 0.0 1.6 0.00 1.70 1.68 98 1004.9
20260506183729 8 22 0.0 1.6 0.00 1.70 1.68 98 1004.9
20260506183623 8 120 0.0 0.0 0.00 1.70 1.68 98 1005.0
20260506183515 8 199 1.6 9.7 0.00 1.70 1.68 98 1005.0
20260506183412 8 302 1.6 9.7 0.00 1.70 1.68 98 1005.1
20260506182605 8 325 0.0 9.7 0.00 1.70 1.68 98 1004.7
20260506182500 8 300 0.0 4.8 0.00 1.70 1.68 98 1004.8
20260506182357 8 69 0.0 4.8 0.00 1.70 1.68 98 1004.9
20260506182251 8 108 0.0 4.8 0.00 1.70 1.68 98 1005.0
20260506181929 8 128 0.0 4.8 0.00 1.70 1.68 98 1004.8
20260506181341 8 240 0.0 0.0 0.00 1.70 1.68 98 1005.0
20260506181238 8 167 0.0 0.0 0.00 1.70 1.68 98 1004.9
20260506181130 8 107 0.0 4.8 0.00 1.70 1.68 99 1004.8
20260506180807 8 130 0.0 4.8 0.00 1.70 1.68 99 1004.9
20260506180438 8 244 0.0 1.6 0.00 1.70 1.68 98 1004.9
20260506180113 8 78 0.0 1.6 0.00 1.70 1.68 98 1004.8
20260506180007 8 96 0.0 1.6 0.00 1.70 1.68 98 1004.9
20260506175902 8 65 0.0 1.6 0.00 1.70 1.68 98 1005.0
20260506175759 8 34 0.0 1.6 0.00 1.70 1.68 98 1005.0
20260506175653 8 240 0.0 1.6 0.00 1.70 1.68 98 1005.0
20260506175111 8 295 0.0 4.8 0.00 1.70 1.68 99 1005.0
20260506175009 8 237 0.0 4.8 0.00 1.70 1.68 99 1004.9
20260506174907 8 275 0.0 0.0 0.00 1.70 1.68 99 1004.6
20260506174801 8 70 0.0 0.0 0.00 1.70 1.68 99 1004.6
20260506174656 8 313 0.0 0.0 0.00 1.70 1.68 98 1004.7
20260506174549 8 313 0.0 0.0 0.00 1.70 1.68 98 1004.7
20260506174445 8 313 0.0 0.0 0.00 1.70 1.68 98 1004.6
20260506154032 10 47 0.0 0.0 0.30 1.22 1.14 96 1006.0
20260506153829 10 47 0.0 0.0 0.30 1.22 1.14 96 1006.0
20260506153724 10 47 0.0 0.0 0.30 1.22 1.14 96 1006.0
20260506153617 10 47 0.0 1.6 0.30 1.17 1.14 96 1006.0
20260506153512 10 47 0.0 1.6 0.30 1.17 1.09 96 1006.0
20260506152932 10 47 0.0 1.6 0.33 1.14 1.09 96 1005.8
20260506152828 10 47 0.0 0.0 0.41 1.14 1.09 96 1005.9
20260506152725 10 47 0.0 0.0 0.41 1.14 1.09 96 1005.9
20260506152621 10 47 0.0 0.0 0.41 1.14 1.09 96 1005.8
20260506152516 10 47 0.0 0.0 0.41 1.14 1.07 96 1005.9
20260506152412 10 47 0.0 0.0 0.33 1.14 1.07 96 1005.9
20260506152307 10 47 0.0 0.0 0.33 1.14 1.07 96 1006.0
20260506152205 10 47 0.0 0.0 0.33 1.09 1.07 96 1006.0
20260506151837 10 47 0.0 0.0 0.30 1.09 1.02 96 1006.0
20260506151730 10 47 0.0 4.8 0.30 1.07 1.02 96 1006.0
20260506151626 10 47 0.0 4.8 0.33 1.07 1.02 96 1006.1
20260506151304 10 47 0.0 1.6 0.38 1.07 1.02 96 1006.1
20260506151157 10 47 0.0 1.6 0.38 1.07 1.02 96 1006.1
20260506151053 10 47 0.0 1.6 0.33 1.07 0.97 96 1006.1
20260506150729 10 47 0.0 0.0 0.30 1.04 0.97 96 1006.2
20260506150144 10 47 0.0 0.0 0.33 0.99 0.94 96 1006.3
20260506150038 10 47 0.0 4.8 0.33 0.99 0.94 96 1006.2
20260506145936 10 47 0.0 4.8 0.33 0.99 0.94 95 1006.3
20260506145832 10 47 0.0 4.8 0.33 0.99 0.94 96 1006.3
20260506145728 10 42 0.0 4.8 0.38 0.99 0.91 96 1006.4
20260506145626 11 42 0.0 4.8 0.48 0.99 0.91 96 1006.4
20260506145258 11 42 0.0 0.0 0.33 0.97 0.89 96 1006.5
20260506145150 11 42 0.0 0.0 0.33 0.91 0.89 96 1006.5
20260506144824 11 42 0.0 1.6 0.33 0.91 0.86 96 1006.6
20260506144722 11 42 0.0 0.0 0.33 0.89 0.86 96 1006.6
20260506144618 11 42 0.0 0.0 0.33 0.89 0.86 96 1006.6
20260506144513 11 42 0.0 0.0 0.25 0.89 0.84 96 1006.6
20260506144409 11 42 0.0 0.0 0.25 0.89 0.84 96 1006.6
20260506144307 11 42 0.0 0.0 0.25 0.89 0.84 96 1006.6
20260506144200 11 42 0.0 0.0 0.25 0.89 0.84 96 1006.6
20260506144053 11 42 0.0 0.0 0.30 0.89 0.81 96 1006.6
20260506143945 11 42 0.0 0.0 0.30 0.89 0.81 96 1006.7
20260506143839 11 42 0.0 0.0 0.30 0.89 0.81 96 1006.7
20260506143737 11 42 0.0 0.0 0.30 0.86 0.81 96 1006.7
20260506143631 11 42 0.0 0.0 0.30 0.86 0.81 96 1006.7
20260506143305 11 42 0.0 0.0 0.25 0.86 0.79 96 1006.8
20260506143202 11 42 0.0 0.0 0.25 0.81 0.79 96 1006.8
20260506142838 11 42 0.0 0.0 0.33 0.81 0.76 96 1006.8
20260506142736 11 42 0.0 0.0 0.33 0.81 0.76 96 1006.8
20260506142631 11 42 0.0 4.8 0.33 0.81 0.76 96 1006.8
20260506142525 11 42 0.0 4.8 0.33 0.81 0.71 96 1006.8
20260506142421 11 42 0.0 1.6 0.33 0.81 0.71 96 1006.8
20260506142102 11 42 0.0 1.6 0.30 0.79 0.69 96 1006.9
20260506141957 11 42 0.0 1.6 0.30 0.79 0.69 96 1006.9
20260506141854 11 42 0.0 1.6 0.30 0.79 0.69 96 1006.9
20260506141745 11 42 0.0 1.6 0.30 0.74 0.69 96 1007.0
20260506141641 11 42 0.0 0.0 0.30 0.74 0.69 96 1007.0
20260506141534 11 42 0.0 0.0 0.25 0.74 0.69 96 1007.0
20260506141206 11 42 0.0 0.0 0.25 0.74 0.69 96 1007.1
20260506141101 11 42 0.0 0.0 0.33 0.74 0.66 96 1007.0
20260506140957 11 42 0.0 0.0 0.38 0.74 0.66 96 1007.0
20260506140633 11 42 0.0 0.0 0.38 0.69 0.66 96 1007.0
20260506140310 11 42 0.0 0.0 0.23 0.69 0.64 96 1007.0
20260506140204 11 42 0.0 0.0 0.23 0.69 0.61 96 1006.9
20260506135840 11 42 0.0 0.0 0.25 0.69 0.61 96 1006.8
20260506135737 11 42 0.0 0.0 0.25 0.69 0.61 96 1006.8
20260506135635 11 42 0.0 0.0 0.25 0.66 0.61 96 1006.7
20260506135311 11 42 0.0 4.8 0.20 0.66 0.58 96 1006.6
20260506135205 11 42 0.0 4.8 0.20 0.66 0.58 96 1006.7
20260506135100 11 42 0.0 0.0 0.20 0.61 0.58 96 1006.7
20260506134953 11 42 0.0 0.0 0.20 0.61 0.53 96 1006.7
20260506134849 11 42 0.0 0.0 0.20 0.61 0.53 96 1006.6
20260506134746 11 42 0.0 0.0 0.20 0.61 0.53 96 1006.6
20260506134638 11 42 0.0 0.0 0.20 0.61 0.53 96 1006.7
20260506134532 11 42 0.0 0.0 0.20 0.61 0.53 96 1006.6
20260506134429 11 42 0.0 0.0 0.20 0.61 0.53 96 1006.6
20260506134102 11 42 0.0 1.6 0.15 0.61 0.53 96 1006.4
20260506133959 11 42 0.0 1.6 0.15 0.61 0.53 96 1006.5
20260506133856 11 42 0.0 1.6 0.15 0.61 0.53 96 1006.4
20260506133751 11 42 0.0 0.0 0.15 0.61 0.53 96 1006.4
20260506133649 11 42 0.0 0.0 0.15 0.61 0.53 96 1006.4
20260506133543 11 42 0.0 0.0 0.15 0.56 0.53 96 1006.4
20260506133440 11 42 0.0 0.0 0.20 0.56 0.51 96 1006.4
20260506133333 11 42 0.0 0.0 0.20 0.56 0.51 96 1006.4
20260506133228 11 42 0.0 0.0 0.20 0.56 0.51 96 1006.4
20260506133123 11 42 0.0 1.6 0.20 0.56 0.51 96 1006.4
20260506133018 11 42 0.0 1.6 0.20 0.56 0.51 96 1006.5
20260506132915 11 42 0.0 0.0 0.20 0.56 0.51 96 1006.6
20260506132812 11 42 0.0 0.0 0.20 0.56 0.51 96 1006.6
20260506132707 11 42 0.0 0.0 0.20 0.56 0.51 96 1006.6
20260506132343 11 42 0.0 4.8 0.20 0.56 0.48 96 1006.6
20260506132022 12 42 0.0 0.0 0.20 0.53 0.48 96 1006.5
20260506131439 12 42 0.0 4.8 0.23 0.53 0.46 96 1006.4
20260506131334 12 260 0.0 0.0 0.23 0.53 0.46 96 1006.5
20260506131231 12 259 0.0 0.0 0.23 0.48 0.46 96 1006.6
20260506131123 12 259 0.0 0.0 0.23 0.48 0.43 96 1006.6
20260506130758 12 259 0.0 0.0 0.20 0.48 0.43 96 1006.6
20260506130431 12 259 0.0 0.0 0.20 0.48 0.41 96 1006.6
20260506130329 12 259 0.0 0.0 0.20 0.48 0.41 96 1006.7
20260506130224 12 259 0.0 0.0 0.20 0.48 0.41 96 1006.7
20260506125858 12 259 0.0 0.0 0.20 0.48 0.41 96 1006.8
20260506125536 12 259 0.0 0.0 0.20 0.43 0.38 96 1006.8
20260506125431 12 259 0.0 0.0 0.20 0.43 0.38 96 1006.8
20260506125327 12 259 0.0 0.0 0.20 0.43 0.38 96 1006.7
20260506125224 12 259 0.0 0.0 0.20 0.43 0.38 96 1006.7
20260506125120 12 259 0.0 0.0 0.20 0.43 0.38 96 1006.7
20260506125018 12 259 0.0 0.0 0.20 0.43 0.38 96 1006.7
20260506124910 12 259 0.0 0.0 0.23 0.43 0.33 96 1006.7
20260506124807 12 259 0.0 0.0 0.25 0.43 0.33 96 1006.7
20260506124701 12 259 0.0 0.0 0.25 0.43 0.33 96 1006.8
20260506123633 12 259 0.0 0.0 0.25 0.38 0.33 97 1006.8
20260506123311 12 259 0.0 0.0 0.33 0.38 0.30 96 1006.8
20260506123205 12 259 0.0 0.0 0.33 0.33 0.30 96 1006.9
20260506123057 12 259 0.0 0.0 0.33 0.33 0.25 96 1006.9
20260506122955 12 259 0.0 0.0 0.25 0.33 0.25 96 1006.9
20260506122630 12 259 0.0 0.0 0.25 0.30 0.25 96 1007.0
20260506122527 12 259 0.0 0.0 0.30 0.30 0.25 96 1007.1
20260506122421 12 259 0.0 0.0 0.33 0.30 0.25 96 1007.1
20260506122058 12 259 0.0 0.0 0.33 0.30 0.25 96 1007.0
20260506121953 12 259 0.0 0.0 0.20 0.30 0.23 96 1007.1
20260506121847 12 259 0.0 0.0 0.20 0.30 0.23 96 1007.2
20260506121742 12 258 0.0 0.0 0.20 0.30 0.23 96 1007.2
20260506121417 12 258 0.0 0.0 0.15 0.28 0.20 96 1007.1
20260506121313 12 258 0.0 0.0 0.15 0.28 0.20 96 1007.2
20260506121211 12 258 0.0 0.0 0.15 0.28 0.20 96 1007.2
20260506121103 12 258 0.0 0.0 0.15 0.28 0.20 96 1007.2
20260506120958 12 258 0.0 0.0 0.15 0.25 0.20 96 1007.3
20260506120852 12 259 0.0 0.0 0.15 0.25 0.20 96 1007.3
20260506120747 12 258 0.0 0.0 0.13 0.25 0.15 96 1007.3
20260506120640 12 258 0.0 0.0 0.13 0.25 0.15 96 1007.3
20260506120538 12 258 0.0 0.0 0.13 0.25 0.15 96 1007.3
20260506120433 12 258 0.0 0.0 0.13 0.25 0.15 96 1007.3
20260506120328 12 258 0.0 0.0 0.13 0.25 0.15 96 1007.2
20260506120223 12 259 0.0 0.0 0.13 0.25 0.15 96 1007.2
20260506120121 12 258 0.0 0.0 0.13 0.25 0.15 96 1007.1
20260506120017 12 258 0.0 0.0 0.13 0.23 0.15 96 1007.0
20260506115911 12 259 0.0 0.0 0.13 0.23 0.15 96 1007.0
20260506115809 12 258 0.0 0.0 0.10 0.23 0.15 97 1006.9
20260506115706 12 259 0.0 0.0 0.10 0.23 0.15 96 1006.7
20260506115601 12 258 0.0 0.0 0.10 0.23 0.15 97 1006.6
20260506115454 12 258 0.0 0.0 0.10 0.23 0.15 97 1006.7
20260506115349 12 258 0.0 0.0 0.10 0.23 0.15 97 1006.8
20260506115243 12 258 0.0 0.0 0.10 0.23 0.15 97 1006.8
20260506115141 12 258 0.0 0.0 0.10 0.23 0.15 97 1006.8
20260506115037 12 258 0.0 0.0 0.10 0.23 0.15 97 1006.7
20260506114931 12 258 0.0 0.0 0.10 0.20 0.15 97 1006.7
20260506114823 12 258 0.0 0.0 0.10 0.20 0.15 97 1006.6
20260506114717 12 258 0.0 0.0 0.00 0.20 0.13 97 1006.7
20260506114609 12 258 0.0 0.0 0.00 0.20 0.13 97 1006.6
20260506114501 12 258 0.0 0.0 0.00 0.20 0.13 97 1006.6
20260506114355 12 258 0.0 0.0 0.00 0.20 0.13 97 1006.4
20260506114251 12 258 0.0 0.0 0.00 0.20 0.13 97 1006.5
20260506114149 12 258 0.0 0.0 0.00 0.20 0.13 97 1006.5
20260506113820 12 258 0.0 0.0 0.00 0.20 0.13 97 1006.5
20260506113716 12 258 0.0 0.0 0.00 0.20 0.13 97 1006.5
20260506113609 12 258 0.0 0.0 0.00 0.20 0.13 97 1006.6
20260506113242 12 258 0.0 0.0 0.00 0.18 0.13 97 1006.6
20260506113140 12 258 0.0 0.0 0.00 0.18 0.10 97 1006.6
20260506113034 12 258 0.0 0.0 0.00 0.18 0.10 97 1006.6
20260506112929 12 258 0.0 0.0 0.00 0.18 0.10 97 1006.6
20260506112824 12 258 0.0 0.0 0.00 0.18 0.10 97 1006.6
20260506112238 12 258 0.0 0.0 0.00 0.18 0.10 97 1006.7
20260506112136 12 258 0.0 0.0 0.00 0.18 0.10 97 1006.8
20260506112029 12 258 0.0 0.0 0.00 0.18 0.10 97 1006.7
20260506111924 12 258 0.0 0.0 0.00 0.18 0.10 97 1006.7
20260506111821 12 258 0.0 0.0 0.00 0.18 0.10 97 1006.7
20260506111448 12 258 0.0 0.0 0.00 0.18 0.10 97 1006.6
20260506111340 12 258 0.0 0.0 0.00 0.18 0.10 97 1006.6
20260506111233 12 258 0.0 0.0 0.00 0.18 0.10 97 1006.6
20260506111125 12 258 0.0 0.0 0.00 0.18 0.10 97 1006.6
20260506111023 12 258 0.0 0.0 0.00 0.18 0.10 97 1006.5
20260506110918 12 258 0.0 0.0 0.00 0.18 0.10 97 1006.6
20260506110812 12 258 0.0 1.6 0.00 0.18 0.10 97 1006.6
20260506110704 12 258 0.0 1.6 0.00 0.18 0.10 96 1006.5
20260506110600 12 258 0.0 1.6 0.00 0.18 0.10 96 1006.4
20260506110453 12 259 0.0 0.0 0.00 0.18 0.10 96 1006.4
20260506110349 12 259 0.0 0.0 0.00 0.18 0.10 96 1006.3
20260506110246 12 259 0.0 0.0 0.00 0.18 0.10 96 1006.3
20260506105921 12 259 0.0 0.0 0.00 0.18 0.10 96 1006.5
20260506105812 12 259 0.0 0.0 0.00 0.18 0.10 96 1006.6
20260506105705 12 259 0.0 0.0 0.00 0.18 0.10 96 1006.4
20260506105559 12 259 0.0 0.0 0.00 0.18 0.10 96 1006.4
20260506105453 12 259 0.0 0.0 0.00 0.18 0.10 96 1006.3
20260506105347 12 259 0.0 0.0 0.00 0.18 0.10 96 1006.4
20260506105240 12 259 0.0 0.0 0.00 0.18 0.10 96 1006.4
20260506105134 12 259 0.0 0.0 0.00 0.18 0.10 96 1006.5
20260506105031 12 259 0.0 0.0 0.00 0.18 0.10 96 1006.5
20260506104927 12 259 0.0 0.0 0.00 0.18 0.10 96 1006.6
20260506104821 12 259 0.0 0.0 0.00 0.18 0.10 96 1006.5
20260506104716 12 259 0.0 0.0 0.00 0.18 0.10 96 1006.5
20260506104612 12 259 0.0 0.0 0.00 0.18 0.10 96 1006.5
20260506104246 12 259 0.0 0.0 0.10 0.18 0.10 96 1006.4
20260506104142 12 259 0.0 0.0 0.10 0.18 0.10 96 1006.5
20260506104037 12 259 0.0 0.0 0.10 0.18 0.10 96 1006.5
20260506103931 12 259 0.0 0.0 0.10 0.18 0.10 96 1006.5
20260506103827 12 259 0.0 0.0 0.10 0.18 0.10 96 1006.5
20260506103723 12 259 0.0 6.4 0.10 0.18 0.10 96 1006.6
20260506103620 12 259 0.0 6.4 0.10 0.18 0.10 96 1006.7
20260506103039 12 300 0.0 1.6 0.10 0.18 0.10 96 1006.2
20260506102717 12 286 0.0 0.0 0.00 0.15 0.08 96 1006.4
20260506102615 12 286 0.0 4.8 0.00 0.15 0.08 96 1006.5
20260506102511 12 286 0.0 4.8 0.00 0.15 0.08 96 1006.6
20260506102408 12 286 0.0 4.8 0.00 0.15 0.08 96 1006.6
20260506102305 12 286 0.0 4.8 0.00 0.15 0.08 96 1006.5
20260506102159 12 287 0.0 0.0 0.00 0.15 0.08 96 1006.4
20260506101839 12 287 0.0 0.0 0.00 0.15 0.08 96 1006.4
20260506101732 12 287 0.0 0.0 0.00 0.15 0.08 96 1006.5
20260506101628 12 287 0.0 0.0 0.00 0.15 0.08 96 1006.4
20260506101520 12 287 0.0 0.0 0.00 0.15 0.08 96 1006.3
20260506101417 12 287 0.0 0.0 0.00 0.13 0.08 96 1006.3
20260506101311 12 287 0.0 0.0 0.00 0.13 0.08 96 1006.3
20260506101208 12 287 0.0 0.0 0.00 0.13 0.05 96 1006.4
20260506101100 12 287 0.0 0.0 0.00 0.13 0.05 95 1006.4
20260506100740 12 287 0.0 0.0 0.00 0.13 0.05 95 1006.5
20260506100637 12 287 0.0 0.0 0.00 0.13 0.05 95 1006.4
20260506100533 12 287 0.0 0.0 0.00 0.13 0.05 95 1006.4
20260506100429 12 287 0.0 0.0 0.00 0.13 0.05 95 1006.4
20260506100323 12 287 0.0 0.0 0.00 0.13 0.05 95 1006.3
20260506100220 12 287 0.0 0.0 0.00 0.13 0.05 95 1006.3
20260506100117 12 287 0.0 0.0 0.00 0.13 0.05 95 1006.2
20260506095750 12 287 0.0 0.0 0.00 0.13 0.05 95 1006.2
20260506095648 12 287 0.0 0.0 0.00 0.13 0.05 95 1006.2
20260506095542 12 287 0.0 0.0 0.00 0.13 0.05 95 1006.2
20260506095439 12 287 0.0 0.0 0.00 0.13 0.05 95 1006.1
20260506095333 12 287 0.0 0.0 0.00 0.13 0.05 95 1006.1
20260506095228 12 287 0.0 0.0 0.00 0.13 0.05 95 1006.1
20260506095122 12 287 0.0 0.0 0.00 0.13 0.05 95 1006.1
20260506095018 12 287 0.0 0.0 0.00 0.13 0.05 95 1006.1
20260506094915 12 287 0.0 0.0 0.00 0.13 0.05 95 1006.2
20260506094549 12 287 0.0 0.0 0.00 0.13 0.05 95 1006.0
20260506094444 12 287 0.0 0.0 0.00 0.13 0.05 95 1006.1
20260506094338 12 287 0.0 0.0 0.00 0.13 0.05 95 1006.0
20260506094236 12 287 0.0 0.0 0.00 0.13 0.05 95 1006.0
20260506094128 12 287 0.0 0.0 0.00 0.13 0.05 95 1006.0
20260506094023 12 287 0.0 0.0 0.00 0.13 0.05 95 1006.1
20260506093655 12 287 0.0 0.0 0.00 0.13 0.05 95 1006.1
20260506093553 12 287 0.0 0.0 0.00 0.13 0.05 95 1006.1
20260506093448 12 287 0.0 0.0 0.00 0.13 0.05 95 1006.0
20260506093126 12 287 0.0 0.0 0.00 0.13 0.05 95 1006.0
20260506093020 12 287 0.0 0.0 0.00 0.13 0.05 95 1006.0
20260506092914 12 287 0.0 0.0 0.00 0.13 0.05 95 1006.0
20260506092810 12 287 0.0 0.0 0.00 0.13 0.05 95 1006.1
20260506092704 12 287 0.0 0.0 0.00 0.13 0.05 95 1006.1
20260506092601 12 287 0.0 0.0 0.00 0.13 0.05 95 1006.2
20260506092454 12 287 0.0 0.0 0.00 0.13 0.05 95 1006.2
20260506092348 12 287 0.0 0.0 0.00 0.13 0.05 95 1006.2
20260506092241 12 287 0.0 0.0 0.00 0.13 0.05 95 1006.2
20260506092134 12 287 0.0 0.0 0.00 0.13 0.05 95 1006.2
20260506092030 12 287 0.0 0.0 0.00 0.13 0.05 95 1006.2
20260506091923 12 287 0.0 0.0 0.00 0.13 0.05 95 1006.3
20260506091817 12 287 0.0 0.0 0.00 0.13 0.05 95 1006.3
20260506091713 12 287 0.0 0.0 0.00 0.13 0.05 95 1006.2
20260506091606 12 287 0.0 0.0 0.00 0.13 0.05 95 1006.2
20260506091243 12 287 0.0 0.0 0.00 0.13 0.05 95 1006.2
20260506091135 12 287 0.0 0.0 0.00 0.13 0.05 95 1006.2
20260506091032 12 287 0.0 0.0 0.00 0.13 0.05 94 1006.2
20260506090927 12 287 0.0 0.0 0.00 0.13 0.05 95 1006.2
20260506090558 12 287 0.0 0.0 0.00 0.13 0.05 94 1006.3
20260506090450 12 287 0.0 0.0 0.00 0.13 0.05 94 1006.3
20260506090346 12 287 0.0 0.0 0.00 0.13 0.05 94 1006.4
20260506090022 12 287 0.0 0.0 0.00 0.13 0.05 94 1006.4
20260506085920 12 287 0.0 0.0 0.00 0.13 0.05 94 1006.4
20260506085818 12 287 0.0 0.0 0.00 0.13 0.05 94 1006.3
20260506085713 12 287 0.0 0.0 0.00 0.13 0.05 94 1006.3
20260506085348 12 287 0.0 0.0 0.00 0.13 0.05 94 1006.3
20260506085242 12 287 0.0 0.0 0.00 0.13 0.05 94 1006.3
20260506085139 12 287 0.0 0.0 0.00 0.13 0.05 94 1006.3
20260506085035 12 287 0.0 0.0 0.00 0.13 0.05 94 1006.3
20260506084933 12 287 0.0 0.0 0.00 0.13 0.05 94 1006.3
20260506084829 12 287 0.0 0.0 0.00 0.13 0.05 94 1006.3
20260506084725 12 287 0.0 0.0 0.00 0.13 0.05 94 1006.3
20260506084621 12 287 0.0 0.0 0.00 0.13 0.05 94 1006.4
20260506084518 12 287 0.0 0.0 0.00 0.13 0.05 94 1006.4
20260506084412 12 287 0.0 0.0 0.00 0.13 0.05 94 1006.4
20260506084046 12 287 0.0 0.0 0.00 0.13 0.05 94 1006.4
20260506083943 12 287 0.0 0.0 0.00 0.13 0.05 94 1006.4
20260506083837 12 287 0.0 0.0 0.00 0.13 0.05 94 1006.4
20260506083733 12 287 0.0 0.0 0.00 0.13 0.05 94 1006.4
20260506083407 12 287 0.0 0.0 0.00 0.13 0.05 94 1006.5
20260506083302 12 287 0.0 0.0 0.00 0.13 0.05 94 1006.5
20260506083159 12 287 0.0 0.0 0.00 0.13 0.05 94 1006.6
20260506083053 12 287 0.0 0.0 0.00 0.13 0.05 94 1006.5
20260506082945 12 287 0.0 0.0 0.00 0.13 0.05 94 1006.6
20260506082840 12 287 0.0 0.0 0.00 0.13 0.05 94 1006.6
20260506082734 12 287 0.0 0.0 0.00 0.13 0.05 94 1006.6
20260506082628 12 287 0.0 0.0 0.00 0.13 0.05 94 1006.5
20260506082521 12 287 0.0 0.0 0.00 0.13 0.05 94 1006.5
20260506082414 12 287 0.0 0.0 0.00 0.13 0.05 94 1006.5
20260506082310 12 287 0.0 0.0 0.00 0.13 0.05 94 1006.5
20260506082202 12 287 0.0 0.0 0.00 0.13 0.05 94 1006.6
20260506082055 12 287 0.0 0.0 0.00 0.13 0.05 94 1006.7
20260506081951 12 287 0.0 0.0 0.00 0.13 0.05 94 1006.8
20260506081845 12 287 0.0 0.0 0.00 0.13 0.05 94 1006.8
20260506081738 12 287 0.0 0.0 0.00 0.13 0.05 94 1006.9
20260506081411 12 287 0.0 0.0 0.00 0.13 0.05 94 1006.9
20260506081045 12 287 0.0 0.0 0.00 0.13 0.05 97 1006.9
20260506080943 12 287 0.0 0.0 0.00 0.13 0.05 97 1006.9
20260506080840 12 287 0.0 0.0 0.00 0.13 0.05 97 1006.9
20260506080734 12 287 0.0 0.0 0.00 0.13 0.05 97 1006.8
20260506080629 12 287 0.0 0.0 0.00 0.13 0.05 97 1006.8
20260506080525 12 287 0.0 0.0 0.00 0.13 0.05 97 1006.8
20260506080423 12 287 0.0 0.0 0.00 0.13 0.05 97 1006.8
20260506080318 12 287 0.0 0.0 0.00 0.13 0.05 97 1006.7
20260506080215 12 287 0.0 0.0 0.00 0.13 0.05 97 1006.6
20260506080111 12 287 0.0 0.0 0.00 0.13 0.05 96 1006.6
20260506073500 12 287 0.0 0.0 0.00 0.13 0.05 96 1006.9
20260506073357 12 287 0.0 0.0 0.00 0.13 0.05 96 1007.0
20260506073250 12 287 0.0 0.0 0.00 0.13 0.05 96 1007.1
20260506073144 12 287 0.0 0.0 0.00 0.13 0.05 96 1007.1
20260506073042 12 287 0.0 0.0 0.00 0.13 0.05 96 1007.1
20260506072933 12 287 0.0 0.0 0.00 0.13 0.05 96 1007.1
20260506072828 12 287 0.0 0.0 0.00 0.13 0.05 96 1007.1
20260506072726 12 287 0.0 0.0 0.00 0.13 0.05 96 1007.1
20260506072620 12 287 0.0 0.0 0.00 0.13 0.05 96 1007.1
20260506072256 12 287 0.0 0.0 0.00 0.13 0.05 96 1007.1
20260506072151 12 287 0.0 0.0 0.00 0.13 0.05 96 1007.1
20260506072046 12 287 0.0 0.0 0.00 0.13 0.05 96 1007.1
20260506071943 12 287 0.0 0.0 0.00 0.13 0.05 96 1007.1
20260506071840 12 287 0.0 0.0 0.00 0.13 0.05 96 1007.1
20260506071734 12 287 0.0 0.0 0.00 0.13 0.05 96 1007.1
20260506071628 12 287 0.0 0.0 0.00 0.13 0.05 96 1007.0
20260506071523 12 287 0.0 0.0 0.00 0.13 0.05 96 1007.1
20260506071414 12 287 0.0 0.0 0.00 0.13 0.05 96 1007.1
20260506071049 12 287 0.0 0.0 0.00 0.13 0.05 96 1007.0
20260506070942 12 287 0.0 0.0 0.00 0.13 0.05 96 1006.9
20260506070835 12 287 0.0 0.0 0.00 0.13 0.05 96 1006.9
20260506070732 12 287 0.0 0.0 0.00 0.13 0.05 96 1006.9
20260506070626 12 287 0.0 0.0 0.00 0.13 0.05 96 1006.9
20260506070520 13 287 0.0 0.0 0.00 0.13 0.05 93 1006.8
20260506070415 13 287 0.0 0.0 0.00 0.13 0.05 93 1006.8
20260506070311 13 287 0.0 0.0 0.00 0.13 0.05 93 1006.8
20260506070208 13 287 0.0 0.0 0.00 0.13 0.05 93 1006.9
20260506062412 13 302 0.0 0.0 0.00 0.13 0.05 92 1007.2
20260506062310 13 302 0.0 0.0 0.00 0.13 0.05 92 1007.2
20260506061944 13 302 0.0 0.0 0.00 0.13 0.05 92 1007.1
20260506061838 13 302 0.0 0.0 0.00 0.13 0.05 92 1007.2
20260506061256 13 302 0.0 0.0 0.00 0.13 0.05 92 1007.2
20260506061150 13 302 0.0 0.0 0.00 0.13 0.05 92 1007.2
20260506061042 13 302 0.0 0.0 0.00 0.13 0.05 92 1007.2
20260506060935 13 302 0.0 0.0 0.00 0.13 0.05 92 1007.2
20260506060607 13 302 0.0 0.0 0.00 0.13 0.05 92 1007.2
20260506060501 13 302 0.0 0.0 0.00 0.13 0.05 92 1007.2
20260506060355 13 302 0.0 0.0 0.00 0.13 0.05 92 1007.2
20260506060251 13 302 0.0 0.0 0.00 0.13 0.05 92 1007.2
20260506060146 13 302 0.0 0.0 0.00 0.13 0.05 92 1007.3
20260506051409 15 302 0.0 0.0 0.00 0.08 0.00 86 1007.2
20260506051039 15 302 0.0 0.0 0.00 0.08 0.00 85 1007.1
20260506050936 15 302 0.0 0.0 0.00 0.08 0.00 85 1007.0
20260506050353 15 302 0.0 0.0 0.00 0.08 0.00 84 1006.9
20260506050248 15 302 0.0 0.0 0.00 0.08 0.00 85 1006.9
20260506050143 15 302 0.0 1.6 0.00 0.08 0.00 84 1007.0
20260506045055 15 355 0.0 0.0 0.00 0.08 0.00 84 1007.2
20260506044948 15 355 0.0 0.0 0.00 0.08 0.00 84 1007.2
20260506044622 16 347 0.0 1.6 0.00 0.08 0.00 84 1007.1
20260506044520 16 263 0.0 0.0 0.00 0.08 0.00 85 1007.1
20260506044154 16 263 0.0 1.6 0.00 0.08 0.00 83 1007.1
20260506044051 16 263 0.0 0.0 0.00 0.08 0.00 83 1007.1
20260506043724 16 263 0.0 4.8 0.00 0.08 0.00 83 1007.5
20260506043618 16 263 0.0 4.8 0.00 0.08 0.00 83 1007.5
20260506043516 16 262 0.0 0.0 0.00 0.08 0.00 83 1007.5
20260506043409 16 262 0.0 0.0 0.00 0.08 0.00 83 1007.4
20260506043304 16 262 0.0 0.0 0.00 0.08 0.00 82 1007.4
20260506043200 16 262 1.6 0.0 0.00 0.08 0.00 82 1007.3
20260506042621 16 263 0.0 9.7 0.00 0.08 0.00 83 1007.6
20260506042514 16 263 0.0 9.7 0.00 0.08 0.00 83 1007.6
20260506042411 16 267 0.0 9.7 0.00 0.08 0.00 82 1007.5
20260506042305 16 239 0.0 9.7 0.00 0.08 0.00 83 1007.5
20260506042156 16 295 0.0 4.8 0.00 0.08 0.00 83 1007.5
20260506042052 16 306 0.0 4.8 0.00 0.08 0.00 83 1007.5
20260506041950 16 267 0.0 0.0 0.00 0.08 0.00 83 1007.5
20260506041845 16 267 0.0 0.0 0.00 0.08 0.00 83 1007.4
20260506041740 16 267 0.0 4.8 0.00 0.08 0.00 83 1007.5
20260506041634 16 266 0.0 1.6 0.00 0.08 0.00 83 1007.5
20260506041526 16 265 0.0 4.8 0.00 0.08 0.00 83 1007.4
20260506041419 16 265 0.0 4.8 0.00 0.08 0.00 82 1007.4
20260506041315 16 265 0.0 4.8 0.00 0.08 0.00 82 1007.4
20260506041210 16 263 0.0 0.0 0.00 0.08 0.00 82 1007.4
20260506041103 16 263 0.0 0.0 0.00 0.08 0.00 81 1007.4
20260506040738 16 289 0.0 0.0 0.00 0.08 0.00 82 1007.4
20260506040633 16 289 0.0 0.0 0.00 0.08 0.00 81 1007.3
20260506040525 16 289 0.0 0.0 0.00 0.08 0.00 81 1007.3
20260506040200 16 289 0.0 0.0 0.00 0.08 0.00 80 1007.2
20260506040055 16 289 0.0 0.0 0.00 0.08 0.00 80 1007.2
20260506035951 16 289 0.0 1.6 0.00 0.08 0.08 80 1007.2
20260506035846 16 289 0.0 1.6 0.00 0.08 0.08 80 1007.2
20260506035739 16 289 0.0 9.7 0.00 0.08 0.08 80 1007.2
20260506035412 16 277 0.0 1.6 0.00 0.08 0.08 80 1007.2
20260506035310 16 277 0.0 0.0 0.00 0.08 0.08 80 1007.2
20260506035204 16 277 0.0 9.7 0.00 0.08 0.08 80 1007.2
20260506035101 16 277 1.6 9.7 0.00 0.08 0.08 80 1007.2
20260506034954 16 282 1.6 9.7 0.00 0.08 0.08 80 1007.2
20260506034849 16 284 1.6 9.7 0.00 0.08 0.08 80 1007.3
20260506034745 16 284 1.6 9.7 0.00 0.08 0.08 80 1007.3
20260506034642 16 329 1.6 9.7 0.00 0.08 0.08 80 1007.2
20260506034534 16 329 1.6 9.7 0.00 0.08 0.08 80 1007.2
20260506034430 16 319 4.8 9.7 0.00 0.08 0.08 80 1007.2
20260506034324 16 259 1.6 9.7 0.00 0.08 0.08 80 1007.3
20260506034218 16 290 1.6 9.7 0.00 0.08 0.08 80 1007.3
20260506034112 16 290 1.6 9.7 0.00 0.08 0.08 81 1007.3
20260506034008 16 293 1.6 9.7 0.00 0.08 0.08 81 1007.3
20260506033905 16 296 1.6 9.7 0.00 0.08 0.08 81 1007.3
20260506033541 16 261 1.6 9.7 0.00 0.08 0.08 82 1007.4
20260506033433 16 288 0.0 4.8 0.00 0.08 0.08 83 1007.4
20260506033326 16 298 1.6 4.8 0.00 0.08 0.08 83 1007.4
20260506033219 16 301 1.6 14.5 0.00 0.08 0.08 83 1007.3
20260506033113 16 301 1.6 14.5 0.00 0.08 0.08 84 1007.2
20260506032744 15 336 1.6 14.5 0.00 0.08 0.08 84 1007.1
20260506032640 15 340 1.6 14.5 0.00 0.08 0.08 85 1007.1
20260506032533 15 331 0.0 14.5 0.00 0.08 0.08 86 1007.1
20260506032431 15 336 0.0 14.5 0.00 0.08 0.08 86 1007.0
20260506032324 15 274 0.0 14.5 0.00 0.08 0.08 87 1007.0
20260506032220 15 263 0.0 4.8 0.00 0.08 0.08 87 1007.1
20260506032114 15 263 0.0 4.8 0.00 0.08 0.08 87 1007.1
20260506032009 15 263 0.0 4.8 0.00 0.08 0.08 87 1007.1
20260506031906 15 263 0.0 4.8 0.00 0.08 0.08 87 1007.0
20260506031804 15 261 0.0 4.8 0.00 0.08 0.08 87 1007.0
20260506031659 15 342 0.0 4.8 0.00 0.08 0.08 87 1007.1
20260506031553 15 175 0.0 4.8 0.00 0.08 0.08 87 1007.1
20260506031008 15 175 0.0 0.0 0.00 0.08 0.08 87 1007.1
20260506030902 15 175 0.0 0.0 0.00 0.08 0.08 87 1007.1
20260506030759 15 175 0.0 0.0 0.00 0.08 0.08 87 1007.0
20260506030655 15 175 0.0 0.0 0.00 0.08 0.08 87 1007.0
20260506030552 15 175 0.0 0.0 0.00 0.08 0.08 87 1007.0
20260506030450 15 175 0.0 0.0 0.00 0.08 0.08 87 1007.0
20260506030344 15 175 0.0 0.0 0.00 0.08 0.08 87 1006.9
20260506030240 15 175 0.0 0.0 0.00 0.08 0.08 87 1006.9
20260506030134 15 175 0.0 0.0 0.00 0.08 0.08 87 1006.9
20260506025806 15 175 0.0 4.8 0.00 0.08 0.08 86 1006.9
20260506025222 15 175 0.0 0.0 0.00 0.08 0.08 86 1006.8
20260506025116 15 175 0.0 0.0 0.00 0.08 0.08 86 1006.8
20260506025010 15 175 0.0 0.0 0.00 0.08 0.08 86 1006.8
20260506024430 15 175 0.0 4.8 0.00 0.08 0.08 86 1006.8
20260506024106 15 175 0.0 1.6 0.00 0.08 0.08 86 1006.8
20260506023959 15 175 0.0 1.6 0.00 0.08 0.08 86 1006.8
20260506023639 15 175 0.0 0.0 0.00 0.08 0.08 85 1006.8
20260506023536 15 175 0.0 0.0 0.00 0.08 0.08 85 1006.8
20260506023214 16 175 0.0 4.8 0.00 0.08 0.08 85 1006.7
20260506023110 16 175 0.0 4.8 0.00 0.08 0.08 85 1006.7
20260506023002 16 175 0.0 4.8 0.00 0.08 0.08 85 1006.7
20260506022859 16 175 0.0 4.8 0.00 0.08 0.08 85 1006.7
20260506022752 16 175 0.0 4.8 0.00 0.08 0.08 85 1006.6
20260506022649 16 158 0.0 4.8 0.00 0.08 0.08 85 1006.6
20260506022543 16 158 0.0 4.8 0.00 0.08 0.08 84 1006.5
20260506022439 16 158 0.0 4.8 0.00 0.08 0.08 84 1006.6
20260506022114 16 158 0.0 1.6 0.00 0.08 0.08 84 1006.6
20260506022007 16 158 0.0 0.0 0.00 0.08 0.08 84 1006.6
20260506021902 16 158 0.0 4.8 0.00 0.08 0.08 84 1006.6
20260506021754 16 158 0.0 4.8 0.00 0.08 0.08 84 1006.7
20260506021651 16 158 0.0 4.8 0.00 0.08 0.08 84 1006.7
20260506021547 16 158 0.0 4.8 0.00 0.08 0.08 84 1006.7
20260506021444 16 158 0.0 4.8 0.00 0.08 0.08 84 1006.7
20260506021337 16 158 0.0 4.8 0.00 0.08 0.08 84 1006.7
20260506021234 16 158 0.0 4.8 0.00 0.08 0.08 84 1006.7
20260506021131 16 158 0.0 4.8 0.00 0.08 0.08 85 1006.8
20260506021027 16 158 0.0 4.8 0.00 0.08 0.08 85 1006.7
20260506020703 16 164 0.0 4.8 0.00 0.08 0.08 84 1006.7
20260506020341 16 165 0.0 4.8 0.00 0.08 0.08 84 1006.6
20260506020233 16 161 0.0 4.8 0.00 0.08 0.08 84 1006.6
20260506020128 16 162 0.0 0.0 0.00 0.08 0.08 84 1006.6
20260506020025 16 162 0.0 4.8 0.00 0.08 0.08 84 1006.6
20260506015922 16 162 0.0 4.8 0.00 0.08 0.08 83 1006.6
20260506015818 16 162 0.0 1.6 0.00 0.08 0.08 83 1006.6
20260506015711 16 162 0.0 0.0 0.00 0.08 0.08 83 1006.4
20260506015608 16 162 0.0 1.6 0.00 0.08 0.08 83 1006.4
20260506015505 16 162 0.0 1.6 0.00 0.08 0.08 83 1006.4
20260506015401 16 162 0.0 0.0 0.00 0.08 0.08 83 1006.3
20260506015257 16 162 0.0 0.0 0.00 0.08 0.08 82 1006.3
20260506014937 16 162 0.0 0.0 0.00 0.08 0.08 82 1006.3
20260506014831 16 162 0.0 0.0 0.00 0.08 0.08 82 1006.3
20260506014724 16 162 0.0 0.0 0.00 0.08 0.08 82 1006.3
20260506014618 16 162 0.0 0.0 0.00 0.08 0.08 82 1006.3
20260506014511 16 162 0.0 0.0 0.00 0.08 0.08 81 1006.3
20260506014408 16 162 0.0 0.0 0.00 0.08 0.08 81 1006.2
20260506014305 16 162 0.0 0.0 0.00 0.08 0.08 81 1006.2
20260506014200 16 162 0.0 6.4 0.00 0.08 0.08 81 1006.2
20260506014054 16 162 0.0 6.4 0.00 0.08 0.08 81 1006.2
20260506013949 16 162 1.6 6.4 0.00 0.08 0.08 81 1006.2
20260506013842 16 162 1.6 6.4 0.00 0.08 0.08 81 1006.1
20260506013740 16 158 1.6 6.4 0.00 0.08 0.08 81 1006.1
20260506013633 16 158 1.6 6.4 0.00 0.08 0.08 81 1006.0
20260506013524 16 158 1.6 6.4 0.00 0.08 0.08 80 1006.0
20260506013421 16 158 1.6 6.4 0.00 0.08 0.08 80 1006.0
20260506013317 16 158 4.8 6.4 0.00 0.08 0.08 80 1006.0
20260506013211 16 158 4.8 6.4 0.00 0.08 0.08 80 1006.0
20260506013106 16 150 4.8 6.4 0.00 0.08 0.08 80 1005.9
20260506013004 16 144 1.6 6.4 0.00 0.08 0.08 81 1005.9
20260506012901 16 159 1.6 6.4 0.00 0.08 0.08 81 1006.0
20260506012757 16 159 1.6 6.4 0.00 0.08 0.08 80 1005.9
20260506012651 16 158 1.6 6.4 0.00 0.08 0.08 80 1005.9
20260506012549 16 151 1.6 6.4 0.00 0.08 0.08 80 1005.8
20260506012224 17 177 0.0 4.8 0.00 0.08 0.08 79 1005.8
20260506012118 17 180 0.0 4.8 0.00 0.08 0.08 79 1005.8
20260506012012 17 180 0.0 4.8 0.00 0.08 0.08 79 1005.8
20260506011910 17 180 0.0 0.0 0.00 0.08 0.08 79 1005.8
20260506011805 17 180 0.0 0.0 0.00 0.08 0.08 79 1005.7
20260506011700 17 180 0.0 0.0 0.00 0.08 0.08 79 1005.8
20260506011556 17 180 0.0 0.0 0.00 0.08 0.08 79 1005.8
20260506011452 17 180 0.0 0.0 0.00 0.08 0.08 78 1005.8
20260506011125 17 180 0.0 0.0 0.00 0.08 0.08 78 1005.7
20260506011017 17 180 1.6 0.0 0.00 0.08 0.08 78 1005.6
20260506010912 17 180 1.6 9.7 0.00 0.08 0.08 78 1005.7
20260506010806 17 180 1.6 9.7 0.00 0.08 0.08 77 1005.8
20260506010701 17 180 1.6 9.7 0.00 0.08 0.08 77 1005.7
20260506010557 17 180 1.6 12.9 0.00 0.08 0.08 77 1005.6
20260506010450 17 198 1.6 12.9 0.00 0.08 0.08 77 1005.6
20260506010345 17 198 1.6 12.9 0.00 0.08 0.08 77 1005.6
20260506010020 17 199 4.8 12.9 0.00 0.08 0.08 77 1005.7
20260506005658 17 166 4.8 12.9 0.00 0.08 0.08 77 1005.7
20260506005553 17 161 4.8 12.9 0.00 0.08 0.08 77 1005.8
20260506005449 17 160 4.8 12.9 0.00 0.08 0.08 77 1005.9
20260506005344 17 171 4.8 12.9 0.00 0.08 0.08 77 1006.0
20260506005239 17 174 4.8 12.9 0.00 0.08 0.08 77 1005.9
20260506005133 17 174 4.8 12.9 0.00 0.08 0.08 77 1005.9
20260506005026 17 167 1.6 12.9 0.00 0.08 0.08 77 1005.9
20260506004919 16 174 1.6 12.9 0.00 0.08 0.08 77 1005.8
20260506004817 16 168 1.6 12.9 0.00 0.08 0.08 78 1005.8
20260506004451 16 237 0.0 4.8 0.00 0.08 0.08 78 1005.7
20260506004345 16 237 0.0 4.8 0.00 0.08 0.08 78 1005.6
20260506004237 16 238 0.0 4.8 0.00 0.08 0.08 78 1005.5
20260506004134 16 240 0.0 4.8 0.00 0.08 0.08 78 1005.4
20260506004028 16 240 0.0 4.8 0.00 0.08 0.08 78 1005.3
20260506003924 16 240 0.0 4.8 0.00 0.08 0.08 79 1005.3
20260506003816 16 161 0.0 4.8 0.00 0.08 0.08 79 1005.2
20260506003712 16 161 0.0 1.6 0.00 0.08 0.08 78 1005.2
20260506003606 17 161 0.0 1.6 0.00 0.08 0.08 78 1005.1
20260506003501 17 163 0.0 1.6 0.00 0.08 0.08 78 1005.1
20260506003357 17 163 0.0 1.6 0.00 0.08 0.08 78 1005.2
20260506003256 17 163 0.0 1.6 0.00 0.08 0.08 77 1005.2
20260506003148 17 163 1.6 0.0 0.00 0.08 0.08 77 1005.2
20260506002821 17 163 1.6 9.7 0.00 0.08 0.08 76 1005.2
20260506002715 17 160 1.6 9.7 0.00 0.08 0.08 76 1005.2
20260506002611 17 159 1.6 9.7 0.00 0.08 0.08 76 1005.2
20260506002507 17 159 1.6 9.7 0.00 0.08 0.08 76 1005.3
20260506002400 17 160 1.6 9.7 0.00 0.08 0.08 76 1005.2
20260506002258 17 160 0.0 9.7 0.00 0.08 0.08 76 1005.2
20260506002149 17 154 0.0 9.7 0.00 0.08 0.08 76 1005.2
20260506002046 17 187 0.0 4.8 0.00 0.08 0.08 75 1005.2
20260506001940 17 259 0.0 4.8 0.00 0.08 0.08 75 1005.2
20260506001834 17 287 0.0 4.8 0.00 0.08 0.08 75 1005.1
20260506001732 17 287 0.0 4.8 0.00 0.08 0.08 74 1005.1
20260506001626 17 288 0.0 0.0 0.00 0.08 0.08 74 1005.1
20260506001522 17 289 0.0 0.0 0.00 0.08 0.08 74 1005.1
20260506001417 17 289 0.0 0.0 0.00 0.08 0.08 73 1005.0
20260506001312 17 290 0.0 0.0 0.00 0.08 0.08 73 1005.0
20260506001208 17 289 0.0 0.0 0.00 0.08 0.08 74 1005.1
20260506001102 17 290 0.0 0.0 0.00 0.08 0.08 73 1005.1
20260506000957 18 289 0.0 0.0 0.00 0.08 0.08 73 1005.1
20260506000634 18 289 0.0 0.0 0.00 0.08 0.08 72 1005.0
20260506000528 18 289 0.0 0.0 0.00 0.08 0.08 72 1005.0
20260506000425 18 289 0.0 0.0 0.00 0.08 0.08 71 1005.0
20260506000320 18 289 0.0 0.0 0.00 0.08 0.08 71 1005.0
20260506000213 18 289 0.0 0.0 0.00 0.08 0.08 71 1004.9
20260506000110 18 289 0.0 0.0 0.00 0.08 0.08 70 1004.9
20260506000007 18 289 0.0 0.0 0.00 0.08 0.08 70 1004.9
20260505235901 18 289 0.0 0.0 0.00 0.08 0.08 70 1004.9
20260505235758 18 289 0.0 0.0 0.00 0.08 0.08 70 1005.0
20260505235652 18 289 0.0 0.0 0.00 0.08 0.08 70 1005.0
20260505235105 18 289 1.6 9.7 0.00 0.08 0.08 70 1004.9
20260505234741 18 297 4.8 9.7 0.00 0.08 0.08 69 1004.8
20260505234412 18 277 6.4 14.5 0.00 0.08 0.08 70 1004.8
20260505234304 18 328 6.4 14.5 0.00 0.08 0.08 70 1004.7
20260505234156 18 311 6.4 14.5 0.00 0.08 0.08 70 1004.8
20260505234048 18 309 6.4 14.5 0.00 0.08 0.08 70 1004.7
20260505233942 18 313 6.4 14.5 0.00 0.08 0.08 70 1004.6
20260505233836 18 313 6.4 14.5 0.00 0.08 0.08 70 1004.7
20260505233509 18 323 8.0 27.4 0.00 0.08 0.08 71 1004.6
20260505233406 18 298 8.0 27.4 0.00 0.08 0.08 71 1004.6
20260505233302 18 288 8.0 27.4 0.00 0.08 0.08 71 1004.5
20260505233158 18 293 8.0 27.4 0.00 0.08 0.08 71 1004.4
20260505233051 18 316 8.0 27.4 0.00 0.08 0.08 70 1004.5
20260505232944 18 328 8.0 27.4 0.00 0.08 0.08 71 1004.3
20260505232841 18 315 8.0 27.4 0.00 0.08 0.08 71 1004.4
20260505232733 18 275 8.0 27.4 0.00 0.08 0.08 71 1004.4
20260505232627 18 275 9.7 27.4 0.00 0.08 0.08 71 1004.3
20260505232519 18 261 9.7 27.4 0.00 0.08 0.08 71 1004.2
20260505232415 18 247 9.7 27.4 0.00 0.08 0.08 71 1004.2
20260505232310 18 279 9.7 27.4 0.00 0.08 0.08 71 1004.2
20260505231946 18 290 9.7 27.4 0.00 0.08 0.08 71 1004.2
20260505231838 18 255 8.0 27.4 0.00 0.08 0.08 71 1004.2
20260505231735 18 355 8.0 27.4 0.00 0.08 0.08 71 1004.2
20260505231628 18 284 6.4 27.4 0.00 0.08 0.08 72 1004.2
20260505231525 18 350 6.4 19.3 0.00 0.08 0.08 72 1004.3
20260505231419 18 293 8.0 19.3 0.00 0.08 0.08 72 1004.2
20260505231317 18 309 6.4 17.7 0.00 0.08 0.08 72 1004.3
20260505231211 18 302 6.4 17.7 0.00 0.08 0.08 72 1004.2
20260505231108 18 324 6.4 17.7 0.00 0.08 0.08 72 1004.2
20260505231003 18 325 8.0 17.7 0.00 0.08 0.08 72 1004.3
20260505230854 18 258 8.0 17.7 0.00 0.08 0.08 72 1004.4
20260505230751 18 299 8.0 17.7 0.00 0.08 0.08 72 1004.3
20260505230646 18 284 8.0 17.7 0.00 0.08 0.08 72 1004.4
20260505230541 18 291 8.0 17.7 0.00 0.08 0.08 72 1004.5
20260505225951 18 331 8.0 20.9 0.00 0.08 0.08 72 1004.3
20260505225845 18 278 8.0 20.9 0.00 0.08 0.08 72 1004.3
20260505225738 18 279 8.0 20.9 0.00 0.08 0.08 72 1004.4
20260505225632 18 283 8.0 20.9 0.00 0.08 0.08 72 1004.3
20260505225527 18 334 8.0 20.9 0.00 0.08 0.08 72 1004.3
20260505225420 18 271 8.0 20.9 0.00 0.08 0.08 72 1004.3
20260505224831 18 272 9.7 30.6 0.00 0.08 0.08 73 1004.4
20260505224726 18 252 9.7 30.6 0.00 0.08 0.08 73 1004.3
20260505224622 18 323 9.7 30.6 0.00 0.08 0.08 73 1004.3
20260505224515 18 319 8.0 30.6 0.00 0.08 0.08 73 1004.4
20260505224410 18 277 8.0 30.6 0.00 0.08 0.08 72 1004.5
20260505224303 18 311 9.7 30.6 0.00 0.08 0.08 73 1004.4
20260505224159 18 279 9.7 30.6 0.00 0.08 0.08 73 1004.4
20260505224055 18 299 9.7 30.6 0.00 0.08 0.08 73 1004.5
20260505223950 18 289 9.7 30.6 0.00 0.08 0.08 73 1004.4
20260505223843 18 274 9.7 30.6 0.00 0.08 0.08 73 1004.4
20260505223738 18 306 9.7 30.6 0.00 0.08 0.08 73 1004.4
20260505223631 18 292 9.7 30.6 0.00 0.08 0.08 74 1004.4
20260505223525 18 301 9.7 30.6 0.00 0.08 0.08 74 1004.4
20260505223418 18 347 9.7 30.6 0.00 0.08 0.08 73 1004.5
20260505223315 18 279 9.7 30.6 0.00 0.08 0.08 73 1004.5
20260505223207 18 239 9.7 27.4 0.00 0.05 0.08 73 1004.6
20260505223102 18 246 9.7 27.4 0.00 0.05 0.05 73 1004.7
20260505222959 18 246 9.7 27.4 0.00 0.05 0.05 74 1004.8
20260505222856 18 200 9.7 27.4 0.00 0.05 0.05 73 1005.0
20260505222534 18 334 9.7 27.4 0.00 0.05 0.05 71 1004.4
20260505222432 18 252 9.7 27.4 0.00 0.05 0.05 71 1004.7
20260505222325 18 224 11.3 27.4 0.00 0.05 0.05 69 1004.8
20260505222218 18 188 11.3 27.4 0.00 0.05 0.05 69 1004.7
20260505222114 18 214 11.3 27.4 0.00 0.05 0.05 70 1004.7
20260505222009 19 242 11.3 27.4 0.00 0.05 0.05 69 1004.7
20260505221903 19 297 9.7 27.4 0.00 0.05 0.05 69 1004.7
20260505221758 19 274 9.7 41.8 0.00 0.05 0.05 69 1004.7
20260505221655 19 219 9.7 41.8 0.00 0.05 0.05 69 1004.6
20260505221330 19 150 9.7 41.8 0.00 0.05 0.05 67 1004.6
20260505221224 19 159 11.3 41.8 0.00 0.05 0.05 67 1004.7
20260505221117 19 238 11.3 41.8 0.00 0.05 0.05 67 1004.7
20260505221009 19 229 11.3 41.8 0.00 0.05 0.05 67 1004.5
20260505220904 19 192 14.5 41.8 0.00 0.05 0.05 66 1004.6
20260505220757 19 234 14.5 41.8 0.00 0.05 0.05 66 1004.4
20260505220653 19 332 14.5 41.8 0.00 0.05 0.05 66 1004.4
20260505220550 19 322 14.5 41.8 0.00 0.05 0.05 66 1004.4
20260505220447 19 235 14.5 41.8 0.00 0.05 0.05 66 1004.3
20260505220345 19 210 12.9 41.8 0.00 0.05 0.05 67 1004.4
20260505220239 19 251 12.9 41.8 0.00 0.05 0.05 66 1004.3
20260505220131 19 301 12.9 41.8 0.00 0.05 0.05 66 1004.3
20260505220028 19 254 12.9 41.8 0.00 0.05 0.05 66 1004.3
20260505215920 19 259 12.9 41.8 0.00 0.05 0.05 65 1004.3
20260505215814 19 295 12.9 41.8 0.00 0.05 0.05 66 1004.1
20260505215711 19 300 11.3 32.2 0.00 0.05 0.05 65 1004.1
20260505215603 19 292 11.3 32.2 0.00 0.05 0.05 66 1004.1
20260505215456 19 252 11.3 32.2 0.00 0.05 0.05 67 1004.0
20260505215350 19 250 11.3 32.2 0.00 0.05 0.05 66 1004.1
20260505215246 19 340 12.9 32.2 0.00 0.05 0.05 65 1004.0
20260505215142 19 272 12.9 32.2 0.00 0.05 0.05 65 1003.7
20260505215039 19 257 12.9 32.2 0.00 0.05 0.05 65 1003.9
20260505214932 18 286 12.9 29.0 0.00 0.05 0.05 66 1003.8
20260505214825 18 284 12.9 29.0 0.00 0.05 0.05 67 1003.7
20260505214719 18 333 12.9 29.0 0.00 0.05 0.05 67 1003.8
20260505214614 18 281 14.5 29.0 0.00 0.05 0.05 68 1003.7
20260505214512 18 341 14.5 29.0 0.00 0.05 0.05 68 1003.8
20260505214404 18 0 14.5 29.0 0.00 0.05 0.05 67 1003.8
20260505214300 18 282 14.5 29.0 0.00 0.05 0.05 68 1003.8
20260505214154 18 290 12.9 37.0 0.00 0.05 0.05 68 1003.7
20260505214050 18 266 12.9 37.0 0.00 0.05 0.05 68 1003.7
20260505213242 19 276 14.5 54.7 0.00 0.05 0.05 68 1003.6
20260505213135 19 307 17.7 54.7 0.00 0.05 0.05 68 1003.7
20260505213028 19 329 17.7 54.7 0.00 0.05 0.05 67 1003.9
20260505212658 19 316 19.3 54.7 0.00 0.05 0.05 66 1003.8
20260505212555 19 298 20.9 54.7 0.00 0.05 0.05 65 1003.6
20260505212235 20 280 20.9 54.7 0.00 0.05 0.05 65 1003.5
20260505212130 20 333 20.9 54.7 0.00 0.05 0.05 64 1003.5
20260505212027 20 257 20.9 54.7 0.00 0.05 0.05 64 1003.6
20260505211921 20 282 19.3 54.7 0.00 0.05 0.05 64 1003.8
20260505211816 20 285 19.3 54.7 0.00 0.05 0.05 64 1003.8
20260505211714 20 304 17.7 54.7 0.00 0.05 0.05 64 1003.9
20260505211611 20 330 17.7 54.7 0.00 0.05 0.05 64 1003.8
20260505211504 20 229 17.7 54.7 0.00 0.05 0.05 64 1003.9
20260505211359 20 342 17.7 54.7 0.00 0.05 0.05 63 1004.0
20260505211032 20 311 17.7 51.5 0.00 0.05 0.05 64 1004.1
20260505210926 20 252 17.7 51.5 0.00 0.05 0.05 64 1003.9
20260505210824 20 306 19.3 51.5 0.00 0.05 0.05 64 1003.9
20260505210719 20 340 20.9 51.5 0.00 0.05 0.05 64 1004.1
20260505210613 20 334 20.9 51.5 0.00 0.05 0.05 63 1004.1
20260505210250 21 271 22.5 48.3 0.00 0.05 0.05 63 1004.2
20260505210147 21 299 22.5 48.3 0.00 0.05 0.05 62 1004.1
20260505210040 21 330 22.5 48.3 0.00 0.05 0.05 62 1004.1
20260505205933 21 259 22.5 48.3 0.00 0.05 0.05 61 1004.1
20260505205611 22 280 17.7 48.3 0.00 0.03 0.05 60 1004.0
20260505205509 22 246 17.7 48.3 0.00 0.03 0.05 59 1004.0
20260505205405 22 300 12.9 32.2 0.00 0.03 0.03 58 1003.9
20260505205040 22 230 9.7 25.7 0.00 0.03 0.03 56 1003.8
20260505204712 22 282 9.7 20.9 0.00 0.03 0.03 56 1003.4
20260505204609 22 235 9.7 20.9 0.00 0.03 0.03 54 1003.4
20260505204503 23 286 8.0 20.9 0.00 0.03 0.03 55 1003.5
20260505204401 22 284 8.0 20.9 0.00 0.03 0.03 56 1003.3
20260505204254 22 199 8.0 20.9 0.00 0.03 0.03 55 1003.1
20260505204149 22 279 8.0 20.9 0.00 0.03 0.03 55 1002.9
20260505204045 22 249 8.0 20.9 0.00 0.03 0.03 55 1002.9
20260505203940 22 247 6.4 20.9 0.00 0.03 0.03 55 1002.7
20260505203352 22 234 4.8 14.5 0.00 0.03 0.03 57 1002.6
20260505203247 22 270 1.6 14.5 0.00 0.03 0.03 60 1002.6
20260505203143 22 228 1.6 9.7 0.00 0.03 0.03 58 1002.6
20260505203039 22 244 1.6 9.7 0.00 0.03 0.03 57 1002.5
20260505202936 22 232 1.6 9.7 0.00 0.03 0.03 59 1002.5
20260505202829 22 237 1.6 6.4 0.00 0.03 0.03 59 1002.5
20260505202725 22 277 1.6 12.9 0.00 0.03 0.03 62 1002.6
20260505202621 22 253 1.6 12.9 0.00 0.03 0.03 61 1002.6
20260505202520 21 253 1.6 12.9 0.00 0.03 0.03 62 1002.6
20260505202415 21 240 4.8 12.9 0.00 0.03 0.03 63 1002.6